Home   Weather   Vincennes   Past weeks
Flag for USA

Past Weather in Vincennes, Indiana, USA — Yesterday and Last 2 Weeks

Now
54 °F

Clear.


Feels Like: 51 °F
Forecast: 67 / 37 °F
Wind: 10 mph from South

Location: Lawrenceville-Vincennes International Airport

Current Time: Oct 13, 2019 at 9:22:40 pm

Latest Report: Oct 13, 2019 at 7:53 pm


Visibility: 10 mi

Pressure: 29.93 "Hg

Humidity: 53%

Dew Point: 37 °F

Location of VincennesLocation

Past Weather in Vincennes — Graph

°F

Vincennes Temperature Yesterday

Maximum temperature yesterday: 57 °F (at 3:53 pm)
Minimum temperature yesterday: 35 °F (at 7:53 am)
Average temperature yesterday: 45 °F

High & Low Weather Summary for the Past Weeks

 TemperatureHumidityPressure
High95 °F (Oct 1, 2:53 pm)100% (Oct 11, 5:53 pm)30.32 "Hg (Oct 11, 5:53 pm)
Low35 °F (Oct 12, 7:53 am)24% (Oct 7, 4:53 pm)29.90 "Hg (Oct 2, 5:53 pm)
Average66 °F69%30.08 "Hg
* Reported Sep 28 7:53 pm — Oct 13 7:53 pm, Vincennes. Weather by CustomWeather, © 2019

Note: Actual official high and low records may vary slightly from our data, if they occured in-between our weather recording intervals... More about our weather records

Advertising

Vincennes Weather History for the Previous 24 Hours

Scroll right to see more
 ConditionsComfort  
Time TempWeatherWind HumidityBarometerVisibility
7:53 pm
Sun, Oct 13
54 °FClear.10 mph53%29.93 "Hg10 mi
6:53 pm65 °FSunny.12 mph33%29.92 "Hg10 mi
5:53 pm69 °FSunny.15 mph27%29.92 "Hg10 mi
4:53 pm70 °FSunny.17 mph26%29.93 "Hg10 mi
3:53 pm70 °FSunny.15 mph28%29.93 "Hg10 mi
2:53 pm68 °FSunny.14 mph31%29.95 "Hg10 mi
1:53 pm67 °FSunny.14 mph33%29.96 "Hg10 mi
12:53 pm63 °FSunny.10 mph37%29.99 "Hg10 mi
11:53 am60 °FSunny.12 mph42%30.00 "Hg10 mi
10:53 am55 °FSunny.13 mph53%30.01 "Hg10 mi
9:53 am49 °FSunny.10 mph69%30.02 "Hg10 mi
8:53 am41 °FSunny.5 mph86%30.02 "Hg10 mi
7:53 am37 °FClear.6 mph86%30.02 "Hg10 mi
6:53 am37 °FClear.5 mph86%30.01 "Hg10 mi
5:53 am39 °FClear.6 mph82%30.01 "Hg10 mi
4:53 am38 °FClear.7 mph86%30.01 "Hg10 mi
3:53 am39 °FClear.6 mph82%30.01 "Hg10 mi
2:53 am40 °FClear.6 mph80%30.03 "Hg10 mi
1:53 am39 °FClear.6 mph82%30.03 "Hg10 mi
12:53 am40 °FClear.5 mph80%30.04 "Hg10 mi
11:53 pm
Sat, Oct 12
42 °FClear.10 mph76%30.04 "Hg10 mi
10:53 pm44 °FClear.9 mph71%30.05 "Hg10 mi
9:53 pm42 °FClear.8 mph76%30.07 "Hg10 mi
Weather by CustomWeather, © 2019

See weather overview